Regional Weather Roundup
Issued by NWS

Home | Current Version | Previous Version | Text Only | Print | Product List | Glossary Off
Versions: 1 2 3 4 5 6 7 8 9 10 11 12 13 14 15 16 17 18 19 20 21 22 23 24 25 26 27 28 29 30 31 32 33 34 35 36 37 38 39 40 41 42 43 44 45 46 47 48 49 50

000
ASUS43 KIND 230309
RWRIN

WEATHER ROUNDUP FOR INDIANA
NATIONAL WEATHER SERVICE INDIANAPOLIS IN
1100 PM EDT THU JUN 22 2017

NOTE: "FAIR" INDICATES FEW OR NO CLOUDS BELOW 12,000 FEET WITH NO
SIGNIFICANT WEATHER AND/OR OBSTRUCTIONS TO VISIBILITY.

* - STATION DOES NOT REPORT WEATHER SUCH AS PRECIPITATION OR FOG.

+ - STATION NOT QUALITY CONTROLLED BY THE NATIONAL WEATHER SERVICE.
    USE DATA WITH CAUTION...ESPECIALLY DEWPOINT AND RELATIVE
    HUMIDITY OBSERVATIONS.

INZ001>003-010>013-019-020-230400-
NORTHWEST INDIANA

CITY           SKY/WX    TMP DP  RH WIND       PRES   REMARKS
GARY /AIRPORT/ CLOUDY    79  68  69 S7        29.75R
KNOX *+        CLOUDY    73  59  60 SW10G18   29.78R
LA PORTE +     CLOUDY    74  68  80 S12G18    29.79R
MICHIGAN CITY+ CLOUDY    73  68  83 S10G22    29.78R
MONTICELLO +   CLOUDY    74  69  83 S8        29.79F
RENSSELAER +   CLOUDY    73  68  83 S13G18    29.78S
VALPARAISO     CLOUDY    76  70  82 S13G22    29.78R

$$

LMZ046-743>745-230400-
SOUTHERN LAKE MICHIGAN

STATION/POSITION TIME  TEMP    WIND        PRES    WAVE
                       AIR SEA DIR/SP/G            HT
                 (UTC) (F)     (DEG/KT/KT) (MB)    (FT)
BURNS HARBOR     0240   77     190/ 12/ 20 1007.8R
MICHIGAN CITY    0240   77     180/ 15/ 18   N/A
5NW MICH CITY    0300   74 68  200/ 16/ 19   N/A     2

$$

INZ004-005-014>016-021>024-230400-
NORTH CENTRAL INDIANA

CITY           SKY/WX    TMP DP  RH WIND       PRES   REMARKS
GOSHEN         CLEAR     75  66  73 S18G26    29.79R
LOGANSPORT +   CLOUDY    73  66  78 S12       29.82S
PERU/GRISSOM   MOCLDY    74  68  82 S16G22    29.80S
ROCHESTER +    MOCLDY    77  68  73 S12G18    29.80S
SOUTH BEND     MOCLDY    75  68  78 SW16G29   29.78R
WARSAW +       PTCLDY    73  64  73 S7G17     29.80S

$$

INZ006>009-017-018-025>027-230400-
NORTHEAST INDIANA

CITY           SKY/WX    TMP DP  RH WIND       PRES   REMARKS
AUBURN +       MOCLDY    77  64  65 S9        29.83S
FORT WAYNE     MOCLDY    76  67  73 S12       29.83S
HUNTINGTON +   CLOUDY    75  68  78 SW14      29.83S
KENDALLVILLE + CLEAR     74  67  77 S10G20    29.82S

$$

INZ028-029-035-036-043>045-051>053-230400-
WEST CENTRAL INDIANA

CITY           SKY/WX    TMP DP  RH WIND       PRES   REMARKS
CRAWFORDSVL +  CLOUDY    70  70 100 S10       29.83R
GREENCASTLE +  CLOUDY    70  70 100 S6        29.84S
LAFAYETTE      CLOUDY    73  69  87 S8        29.79F
TERRE HAUTE    CLOUDY    74  70  87 S9        29.81S

$$

INZ030>032-037>040-046>048-054>057-064-065-230400-
CENTRAL INDIANA

CITY           SKY/WX    TMP DP  RH WIND       PRES   REMARKS
CP ATTERBURY + CLOUDY    70  68  94 S8G16     29.85S
FRANKFORT +    CLOUDY    74  71  88 S5        29.84S
GREENWOOD *+   CLOUDY    73  68  84 S13G18    29.85F
INDIANAPOLIS   DRIZZLE   72  70  93 S10       29.83S
-EAGLE CREEK   CLOUDY    73  69  87 S9        29.83S
KOKOMO +       CLOUDY    75  68  78 S14       29.83F
MARION +       CLOUDY    73  66  78 S15G21    29.85S
MT COMFORT *+  CLOUDY    72  68  88 S12G17    29.85S
SHELBYVILLE    CLOUDY    73  68  84 S10       29.84S
ZIONSVILLE +   CLOUDY    72  68  87 S14       29.85S

$$

INZ033-034-041-042-049-050-058-059-230400-
EAST CENTRAL INDIANA

CITY           SKY/WX    TMP DP  RH WIND       PRES   REMARKS
MUNCIE         CLOUDY    75  68  78 S10       29.86R
RICHMOND +     MOCLDY    68  66  94 S13       29.91R

$$

INZ060-061-067>069-081>083-085>088-230400-
SOUTHWEST INDIANA

CITY           SKY/WX    TMP DP  RH WIND       PRES   REMARKS
EVANSVILLE     CLOUDY    75  72  90 SE6       29.83R
HUNTINGBURG *+ PTCLDY    73  72  96 SE9       29.84S
WASHINGTON +   CLOUDY    73  71  94 S8        29.82S

$$

INZ062-063-066-070>080-084-089>092-230400-
SOUTH CENTRAL AND SOUTHEAST INDIANA

CITY           SKY/WX    TMP DP  RH WIND       PRES   REMARKS
BEDFORD +      CLOUDY    72  68  88 SE7       29.85R
BLOOMINGTON    LGT RAIN  72  68  87 S8        29.84S
MADISON *+     CLOUDY    70  68  94 SE7       29.90S
NORTH VERNON + CLOUDY    68  68 100 SE8       29.87F
SEYMOUR +      CLOUDY    72  72 100 SE8G17    29.86S

$$





USA.gov is the U.S. government's official web portal to all federal, state and local government web resources and services.